Hlavní strana
METAR-TAF:

METAR-TAF

Letiště :

Wakefield Municipal Airport

Wakefield, Virginie, Spojené státy americké

zeměpisná šířka: 36-58-53N, zeměpisná délka: 077-00-04W, výška: 34 m

Aktuální stav počasí

Zpráva byla vytvořena před 18 minutami, v 13:54 UTC
Bezvětří
Teplota 7°C
Vlhkost vzduchu 93%
Tlak 1029 hPa
Viditelnost: 16.1 km
Jasno

METAR: KAKQ 251354Z AUTO 00000KT 10SM CLR 07/06 A3038 RMK AO2 SLP289 T00720056

Čas: 09:12 (14:12 UTC)


TAF: chybějící

Stav a předpovědi počasí z více než 4 000 letišť (zprávy METAR a TAF).

Červené a žluté tečky na mapě představují dostupné meteorologické stanice.

Když kurzor umístíte na tečku, zobrazí se název stanice.

Pak kliknutím zobrazíte stav a předpověď počasí.

Chcete-li změnit mapu, kliknutím na zelené tlačítko se znaménkem +mapu přiblížíte, kliknutím na zelené tlačítko se znaménkem – mapu oddálíte a kliknutím na zelené šipky přejdete na sousední mapy.


METAR-TAF: